FLOCK 4Y 30

导读

FLOCK 4Y 30是美国Planet实验室研制的SuperDove遥感立方体卫星,于2023年1月3日发射升空,属于Flock-4y批次。该卫星运行于太阳同步轨道,配备多光谱成像设备,具备八个光谱波段,可提供高分辨率对地观测影像,服务农业、林业等领域的资源监测与决策支持,是Planet鸽群遥感星座的重要组成,补充了星座在轨观测能力。

Basic Information
目录编号:
55025
目录名称:
FLOCK 4Y 30
国际标识:
2023-001S
轨道中心:
EARTH
卫星名称:
FLOCK 4Y 30
卫星全名:
--
卫星状态:
已陨落 最后检测时间 2025-07-29
发射日期:
2023-01-03 UTC
国别 :
美国 (US)
星等 :
--
Orbit Information
数据来源 国际轨道数据
星历时间: 2025-07-26T11:49:14+0800
轨道信息已过期367天
半长轴: 6553.908km
偏心率: 0.0015233
轨道倾角: 97.352°
近地点辐角 259.485°
升交点赤经 285.176°
平近点角 100.473°
近地点: 165.789km
远地点: 185.757km
周期: 88.006分钟
每日圈数: 16.3626
Detailed Information
使用方式:
暂无